Time,TemperatureF,DewpointF,PressureIn,WindDirection,WindDirectionDegrees,WindSpeedMPH,WindSpeedGustMPH,Humidity,HourlyPrecipIn,Conditions,Clouds,dailyrainin,SoftwareType,DateUTC
2013-09-30 18:00:00,82.5,26.7,29.63,North,353,1.0,5.0,13,0.00,,,0.00,Wunderground v.1.15,2013-10-01 01:00:00,
2013-09-30 18:05:00,82.3,26.5,29.64,WSW,257,2.0,5.0,13,0.00,,,0.00,Wunderground v.1.15,2013-10-01 01:05:00,
2013-09-30 18:10:00,82.0,26.3,29.64,NW,315,3.0,3.0,13,0.00,,,0.00,Wunderground v.1.15,2013-10-01 01:10:00,
2013-09-30 18:20:00,81.6,27.8,29.64,WNW,293,3.0,3.0,14,0.00,,,0.00,Wunderground v.1.15,2013-10-01 01:20:00,
2013-09-30 18:25:00,81.5,27.7,29.63,NNW,328,4.0,4.0,14,0.00,,,0.00,Wunderground v.1.15,2013-10-01 01:25:00,
2013-09-30 18:30:00,81.4,27.6,29.64,NW,315,5.0,8.0,14,0.00,,,0.00,Wunderground v.1.15,2013-10-01 01:30:00,
2013-09-30 18:35:00,81.4,27.6,29.64,NW,318,6.0,8.0,14,0.00,,,0.00,Wunderground v.1.15,2013-10-01 01:35:00,
2013-09-30 18:40:00,81.2,27.4,29.64,NNW,328,6.0,6.0,14,0.00,,,0.00,Wunderground v.1.15,2013-10-01 01:40:00,
2013-09-30 18:45:00,81.0,27.3,29.64,NNW,342,6.0,9.0,14,0.00,,,0.00,Wunderground v.1.15,2013-10-01 01:45:00,
2013-09-30 18:50:00,80.8,27.1,29.64,NW,316,6.0,6.0,14,0.00,,,0.00,Wunderground v.1.15,2013-10-01 01:50:00,
2013-09-30 18:55:00,80.6,28.7,29.64,NW,323,7.0,8.0,15,0.00,,,0.00,Wunderground v.1.15,2013-10-01 01:55:00,
2013-09-30 19:00:00,80.5,28.6,29.64,NW,318,8.0,9.0,15,0.00,,,0.00,Wunderground v.1.15,2013-10-01 02:00:00,
2013-09-30 19:05:00,80.3,28.4,29.64,NNW,328,8.0,9.0,15,0.00,,,0.00,Wunderground v.1.15,2013-10-01 02:05:00,
2013-09-30 19:10:00,80.1,28.3,29.64,NNW,332,8.0,8.0,15,0.00,,,0.00,Wunderground v.1.15,2013-10-01 02:10:00,
2013-09-30 19:20:00,79.8,28.0,29.64,NW,318,8.0,9.0,15,0.00,,,0.00,Wunderground v.1.15,2013-10-01 02:20:00,
2013-09-30 19:25:00,79.7,27.9,29.64,NNW,333,9.0,9.0,15,0.00,,,0.00,Wunderground v.1.15,2013-10-01 02:25:00,
2013-09-30 19:30:00,79.5,27.8,29.65,NW,307,8.0,8.0,15,0.00,,,0.00,Wunderground v.1.15,2013-10-01 02:30:00,
2013-09-30 19:35:00,79.5,27.8,29.65,NNW,335,7.0,8.0,15,0.00,,,0.00,Wunderground v.1.15,2013-10-01 02:35:00,
2013-09-30 19:40:00,79.5,27.8,29.65,NW,314,7.0,8.0,15,0.00,,,0.00,Wunderground v.1.15,2013-10-01 02:40:00,
2013-09-30 19:45:00,79.8,28.0,29.65,NW,323,8.0,8.0,15,0.00,,,0.00,Wunderground v.1.15,2013-10-01 02:45:00,
2013-09-30 19:50:00,79.7,27.9,29.65,NNW,343,6.0,6.0,15,0.00,,,0.00,Wunderground v.1.15,2013-10-01 02:50:00,
2013-09-30 19:55:00,79.1,27.5,29.65,NNW,332,4.0,6.0,15,0.00,,,0.00,Wunderground v.1.15,2013-10-01 02:55:00,
2013-09-30 20:00:00,78.8,27.2,29.65,NNW,339,4.0,4.0,15,0.00,,,0.00,Wunderground v.1.15,2013-10-01 03:00:00,
2013-09-30 20:05:00,78.3,28.4,29.66,ESE,110,3.0,4.0,16,0.00,,,0.00,Wunderground v.1.15,2013-10-01 03:05:00,
2013-09-30 20:15:00,75.6,27.7,29.66,ENE,62,2.0,3.0,17,0.00,,,0.00,Wunderground v.1.15,2013-10-01 03:15:00,
2013-09-30 20:25:00,75.4,27.5,29.66,NNE,30,1.0,2.0,17,0.00,,,0.00,Wunderground v.1.15,2013-10-01 03:25:00,
2013-09-30 20:30:00,75.5,27.6,29.66,NE,54,1.0,1.0,17,0.00,,,0.00,Wunderground v.1.15,2013-10-01 03:30:00,
2013-09-30 20:35:00,75.2,27.4,29.67,ENE,72,0.0,2.0,17,0.00,,,0.00,Wunderground v.1.15,2013-10-01 03:35:00,
2013-09-30 20:40:00,75.4,27.5,29.67,NNW,348,1.0,1.0,17,0.00,,,0.00,Wunderground v.1.15,2013-10-01 03:40:00,
2013-09-30 20:50:00,75.4,27.5,29.67,NNE,18,4.0,4.0,17,0.00,,,0.00,Wunderground v.1.15,2013-10-01 03:50:00,
2013-09-30 21:00:00,75.1,27.3,29.67,WSW,238,1.0,1.0,17,0.00,,,0.00,Wunderground v.1.15,2013-10-01 04:00:00,
2013-09-30 21:05:00,74.9,27.1,29.67,WNW,300,0.0,1.0,17,0.00,,,0.00,Wunderground v.1.15,2013-10-01 04:05:00,
2013-09-30 21:10:00,74.3,28.0,29.67,SSW,211,0.0,0.0,18,0.00,,,0.00,Wunderground v.1.15,2013-10-01 04:10:00,
2013-09-30 21:15:00,73.9,27.7,29.67,West,280,0.0,0.0,18,0.00,,,0.00,Wunderground v.1.15,2013-10-01 04:15:00,
2013-09-30 21:20:00,73.9,27.7,29.67,West,281,0.0,0.0,18,0.00,,,0.00,Wunderground v.1.15,2013-10-01 04:20:00,
2013-09-30 21:25:00,74.2,27.9,29.67,NNW,338,1.0,6.0,18,0.00,,,0.00,Wunderground v.1.15,2013-10-01 04:25:00,
2013-09-30 21:30:00,74.8,27.0,29.67,NNW,330,4.0,7.0,17,0.00,,,0.00,Wunderground v.1.15,2013-10-01 04:30:00,
2013-09-30 21:40:00,75.7,27.8,29.67,NW,321,6.0,8.0,17,0.00,,,0.00,Wunderground v.1.15,2013-10-01 04:40:00,
2013-09-30 21:45:00,76.0,28.0,29.67,NNW,329,6.0,8.0,17,0.00,,,0.00,Wunderground v.1.15,2013-10-01 04:45:00,
2013-09-30 21:50:00,75.1,27.3,29.67,NNW,341,6.0,7.0,17,0.00,,,0.00,Wunderground v.1.15,2013-10-01 04:50:00,
2013-09-30 21:55:00,74.5,28.2,29.67,NNW,338,6.0,7.0,18,0.00,,,0.00,Wunderground v.1.15,2013-10-01 04:55:00,
2013-09-30 22:00:00,73.9,27.7,29.67,WNW,296,4.0,4.0,18,0.00,,,0.00,Wunderground v.1.15,2013-10-01 05:00:00,
2013-09-30 22:05:00,73.5,27.4,29.67,NNE,30,3.0,4.0,18,0.00,,,0.00,Wunderground v.1.15,2013-10-01 05:05:00,
2013-09-30 22:10:00,73.5,28.7,29.67,NNW,343,2.0,2.0,19,0.00,,,0.00,Wunderground v.1.15,2013-10-01 05:10:00,
2013-09-30 22:15:00,74.1,29.2,29.67,NNW,345,2.0,2.0,19,0.00,,,0.00,Wunderground v.1.15,2013-10-01 05:15:00,
2013-09-30 22:25:00,74.2,29.3,29.67,NW,321,2.0,3.0,19,0.00,,,0.00,Wunderground v.1.15,2013-10-01 05:25:00,
2013-09-30 22:30:00,74.6,28.3,29.67,NW,311,2.0,3.0,18,0.00,,,0.00,Wunderground v.1.15,2013-10-01 05:30:00,
2013-09-30 22:35:00,74.6,28.3,29.67,NW,323,3.0,4.0,18,0.00,,,0.00,Wunderground v.1.15,2013-10-01 05:35:00,
2013-09-30 22:45:00,74.6,29.6,29.67,NW,320,3.0,5.0,19,0.00,,,0.00,Wunderground v.1.15,2013-10-01 05:45:00,
2013-09-30 22:50:00,75.0,28.6,29.67,NW,326,4.0,4.0,18,0.00,,,0.00,Wunderground v.1.15,2013-10-01 05:50:00,
2013-09-30 22:55:00,75.4,28.9,29.67,NNW,346,5.0,6.0,18,0.00,,,0.00,Wunderground v.1.15,2013-10-01 05:55:00,
2013-09-30 23:00:00,76.1,29.5,29.67,NNW,328,5.0,5.0,18,0.00,,,0.00,Wunderground v.1.15,2013-10-01 06:00:00,
2013-09-30 23:10:00,75.7,29.2,29.67,NNW,329,6.0,6.0,18,0.00,,,0.00,Wunderground v.1.15,2013-10-01 06:10:00,
2013-09-30 23:20:00,75.4,28.9,29.67,NW,321,7.0,8.0,18,0.00,,,0.00,Wunderground v.1.15,2013-10-01 06:20:00,
2013-09-30 23:25:00,75.2,28.8,29.67,NW,323,8.0,8.0,18,0.00,,,0.00,Wunderground v.1.15,2013-10-01 06:25:00,
2013-09-30 23:35:00,74.0,29.1,29.67,NNW,334,6.0,7.0,19,0.00,,,0.00,Wunderground v.1.15,2013-10-01 06:35:00,
2013-09-30 23:45:00,73.6,27.4,29.67,NNW,345,7.0,8.0,18,0.00,,,0.00,Wunderground v.1.15,2013-10-01 06:45:00,
2013-09-30 23:50:00,73.4,27.3,29.67,NNW,329,7.0,7.0,18,0.00,,,0.00,Wunderground v.1.15,2013-10-01 06:50:00,
2013-09-30 23:55:00,73.3,28.5,29.67,NNW,330,7.0,7.0,19,0.00,,,0.00,Wunderground v.1.15,2013-10-01 06:55:00,